SCP
0 0 0 0 0 0 0 0 0 0 0 0 0 0 0 0 0 0 0 0 0 0 0 0 0 0 0 0 0 0 0 0 0 0 0 0 0 0 0 0 0 0 0 0 0 0 0 0 0
0 0 0 0 0 0 0 0 0 0 0 0 0 0 0 0 0 0 0 0 0 0 0 0 0 0 0 0 0 0 0 0 0 0 0 0 0 0 0 0 0 0 0 0 0 0 0 0 0
0 0 0 0 0 0 0 0 0 0 0 0 0 0 0 0 0 0 0 0 0 0 0 0 0 0 0 0 0 0 0 0 0 0 0 0 0 0 0 0 0 0 0 0 0 0 0 0 0
0 0 0 0 0 0 0 0 0 0 0 0 0 0 0 0 0 0 0 0 0 0 0 0 0 0 0 0 0 0 0 0 0 0 0 0 0 0 0 0 0 0 0 0 0 0 0 0 0
0 0 0 0 0 0 0 0 0 0 0 0 0 0 0 0 0 0 0 0 0 0 0 0 0 0 0 0 0 0 0 0 0 0 0 0 0 0 0 0 0 0 0 0 0 0 0 0 0
0 0 0 0 0 0 0 0 0 0 0 0 0 0 0 0 0 0 0 0 0 0 0 0 0 0 0 0 0 0 0 0 0 0 0 0 0 0 0 0 0 0 0 0 0 0 0 0 0
0 0 0 0 0 0 0 0 0 0 0 0 0 0 0 0 0 0 0 0 0 0 0 0 0 0 0 0 0 0 0 0 0 0 0 0 0 0 0 0 0 0 0 0 0 0 0 0 0
0 0 0 0 0 0 0 0 0 0 0 0 0 0 0 0 0 0 0 0 0 0 0 0 0 0 0 0 0 0 0 0 0 0 0 0 0 0 0 0 0 0 0 0 0 0 0 0 0
0 0 0 0 0 0 0 0 0 0 0 0 0 0 0 0 0 0 0 0 0 0 0 0 0 0 0 0 0 0 0 0 0 0 0 0 0 0 0 0 0 0 0 0 0 0 0 0 0
0 0 0 0 0 0 0 0 0 0 0 0 0 0 0 0 0 0 0 0 0 0 0 0 0 0 0 0 0 0 0 0 0 0 0 0 0 0 0 0 0 0 0 0 0 0 0 0 0
0 0 0 0 0 0 0 0 0 0 0 0 0 0 0 0 0 0 0 0 0 0 0 0 0 0 0 0 0 0 0 0 0 0 0 0 0 0 0 0 0 0 0 0 0 0 0 0 0
0 0 0 0 0 0 0 0 0 0 0 0 0 0 0 0 0 0 0 0 0 0 0 0 0 0 0 0 0 0 0 0 0 0 0 0 0 0 0 0 0 0 0 0 0 0 0 0 0
0 0 0 0 0 0 0 0 0 0 0 0 0 0 0 0 0 0 0 0 0 0 0 0 0 0 0 0 0 0 0 0 0 0 0 0 0 0 0 0 0 0 0 0 0 0 0 0 0
0 0 0 0 0 0 0 0 0 0 0 0 0 0 0 0 0 0 0 0 0 0 0 0 0 0 0 0 0 0 0 0 0 0 0 0 0 0 0 0 0 0 0 0 0 0 0 0 0
0 0 0 0 0 0 0 0 0 0 0 0 0 0 0 0 0 0 0 0 0 0 0 0 0 0 0 0 0 0 0 0 0 0 0 0 0 0 0 0 0 0 0 0 0 0 0 0 0
0 0 0 0 0 0 0 0 0 0 0 0 0 0 0 0 0 0 0 0 0 0 0 0 0 0 0 0 0 0 0 0 0 0 0 0 0 0 0 0 0 0 0 0 0 0 0 0 0
0 0 0 0 0 0 0 0 0 0 0 0 0 0 0 0 0 0 0 0 0 0 0 0 0 0 0 0 0 0 0 0 0 0 0 0 0 0 0 0 0 0 0 0 0 0 0 0 0
0 0 0 0 0 0 0 0 0 0 0 0 0 0 0 0 0 0 0 0 0 0 0 0 0 0 0 0 0 0 0 0 0 0 0 0 0 0 0 0 0 0 0 0 0 0 0 0 0
0 0 0 0 0 0 0 0 0 0 0 0 0 0 0 0 0 0 0 0 0 0 0 0 0 0 0 0 0 0 0 0 0 0 0 0 0 0 0 0 0 0 0 0 0 0 0 0 0
0 0 0 0 0 0 0 0 0 0 0 0 0 0 0 0 0 0 0 0 0 0 0 0 0 0 0 0 0 0 0 0 0 0 0 0 0 0 0 0 0 0 0 0 0 0 0 0 0
0 0 0 0 0 0 0 0 0 0 0 0 0 0 0 0 0 0 0 0 0 0 0 0 0 0 0 0 0 0 0 0 0 0 0 0 0 0 0 0 0 0 0 0 0 0 0 0 0
0 0 0 0 0 0 0 0 0 0 0 0 0 0 0 0 0 0 0 0 0 0 0 0 0 0 0 0 0 0 0 0 0 0 0 0 0 0 0 0 0 0 0 0 0 0 0 0 0
0 0 0 0 0 0 0 0 0 0 0 0 0 0 0 0 0 0 0 0 0 0 0 0 0 0 0 0 0 0 0 0 0 0 0 0 0 0 0 0 0 0 0 0 0 0 0 0 0
0 0 0 0 0 0 0 0 0 0 0 0 0 0 0 0 0 0 0 0 0 0 0 0 0 0 0 0 0 0 0 0 0 0 0 0 0 0 0 0 0 0 0 0 0 0 0 0 0
0 0 0 0 0 0 0 0 0 0 0 0 0 0 0 0 0 0 0 0 0 0 0 0 0 0 0 0 0 0 0 0 0 0 0 0 0 0 0 0 0 0 0 0 0 0 0 0 0
0 0 0 0 0 0 0 0 0 0 0 0 0 0 0 0 0 0 0 0 0 0 0 0 0 0 0 0 0 0 0 0 0 0 0 0 0 0 0 0 0 0 0 0 0 0 0 0 0
0 0 0 0 0 0 0 0 0 0 0 0 0 0 0 0 0 0 0 0 0 0 0 0 0 0 0 0 0 0 0 0 0 0 0 0 0 0 0 0 0 0 0 0 0 0 0 0 0
0 0 0 0 0 0 0 0 0 0 0 0 0 0 0 0 0 0 0 0 0 0 0 0 0 0 0 0 0 0 0 0 0 0 0 0 0 0 0 0 0 0 0 0 0 0 0 0 0
0 0 0 0 0 0 0 0 0 0 0 0 0 0 0 0 0 0 0 0 0 0 0 0 0 0 0 0 0 0 0 0 0 0 0 0 0 0 0 0 0 0 0 0 0 0 0 0 0
0 0 0 0 0 0 0 0 0 0 0 0 0 0 0 0 0 0 0 0 0 0 0 0 0 0 0 0 0 0 0 0 0 0 0 0 0 0 0 0 0 0 0 0 0 0 0 0 0
Wind_Speed
5 3 2 4 5 3 3 4 3 1 0 0 2 5 6 4 3 4 1 2 4 4 2 3 5 7 8 10 10 11 11 11 11 11 12 12 12 12 12 13 13 13 14 14 14 14 15 15 15
2 1 4 4 4 2 4 4 4 4 4 2 3 4 6 4 2 5 2 2 5 5 3 3 6 8 9 9 10 10 11 11 11 11 12 12 13 13 12 12 13 13 13 13 14 14 13 14 13
2 1 4 4 4 6 5 4 5 3 1 2 3 4 4 3 2 2 2 5 6 4 3 3 7 9 9 9 9 10 10 11 11 11 11 12 13 13 12 12 12 12 12 13 13 13 13 13 13
2 4 4 3 4 5 4 3 3 2 1 2 5 5 3 3 1 3 5 6 7 5 3 3 8 9 9 9 10 10 10 10 11 11 11 12 13 13 12 12 11 12 12 12 12 12 12 12 12
4 4 3 1 4 3 3 3 2 2 2 1 5 5 2 4 3 6 7 7 7 5 4 4 7 8 9 9 9 10 10 10 10 10 11 12 12 12 12 11 11 11 11 12 12 12 12 12 12
4 4 4 4 5 3 3 2 2 1 1 1 5 6 2 1 4 6 6 7 6 6 5 4 7 8 8 9 9 10 10 10 10 10 11 11 11 12 11 11 11 11 11 11 11 11 11 11 11
4 4 4 5 4 3 4 2 3 3 2 1 4 7 3 1 3 5 6 7 6 6 5 4 4 5 7 8 9 9 9 9 10 10 9 10 10 11 11 10 10 11 11 11 11 11 11 11 11
4 4 2 3 4 4 2 1 1 3 2 1 3 7 6 5 5 6 7 6 6 5 5 4 4 5 4 4 7 9 9 10 10 10 10 10 9 9 10 9 10 10 10 10 10 10 10 10 11
3 3 4 5 5 3 1 1 0 1 4 3 4 2 3 9 8 8 6 5 5 5 4 4 4 5 4 4 6 6 8 9 9 8 10 8 5 5 5 7 9 9 10 10 10 10 10 10 10
3 4 6 3 2 3 1 1 2 3 3 2 3 4 7 9 9 9 8 7 5 5 4 3 4 4 4 4 4 4 4 5 5 4 5 4 3 4 5 8 9 9 9 9 9 10 9 7 4
3 5 3 2 1 1 1 1 0 4 2 4 5 7 8 7 7 7 7 6 6 5 4 3 4 4 4 3 3 2 2 3 3 4 4 4 3 3 3 3 4 5 6 4 5 5 4 4 3
3 2 2 2 1 1 1 1 0 1 3 2 6 11 9 9 8 7 7 6 5 5 4 3 4 4 4 3 3 2 2 2 2 3 3 3 2 3 2 2 2 3 2 3 3 2 3 4 4
2 2 2 2 1 1 2 1 1 1 0 4 7 9 9 7 5 4 4 5 5 5 4 4 4 4 4 3 2 2 2 2 2 2 3 3 2 2 2 2 2 2 2 2 2 3 3 3 3
2 1 1 2 1 0 1 1 1 2 2 6 7 7 7 7 6 4 4 4 4 5 5 4 5 4 4 3 3 2 2 2 2 2 2 3 3 2 2 2 2 2 2 1 2 2 2 2 2
1 1 2 2 3 2 2 3 4 3 3 5 5 5 5 4 5 5 5 5 4 5 4 4 5 4 4 4 3 2 2 2 2 2 2 3 3 2 2 2 2 1 1 2 2 3 3 3 3
1 1 2 3 2 3 4 6 4 2 5 4 3 4 4 3 4 4 4 3 4 5 5 4 4 4 4 3 3 2 2 2 2 2 2 3 3 3 2 2 1 1 1 2 2 2 2 2 2
1 2 3 3 2 2 4 6 3 1 4 4 4 4 4 3 2 2 3 3 3 4 5 4 3 4 3 3 2 2 2 2 1 1 2 2 2 3 2 1 1 1 2 2 2 2 2 2 2
4 3 3 4 1 2 3 5 4 1 3 4 3 3 3 3 2 2 3 3 3 4 4 3 3 3 3 2 2 2 2 1 1 1 1 2 2 2 2 1 1 2 2 2 2 2 2 2 2
4 3 3 3 1 1 4 6 7 3 2 2 2 2 3 3 1 2 3 4 4 3 3 3 3 2 2 2 2 1 1 1 0 0 1 1 1 2 2 1 1 1 1 2 2 2 2 2 2
2 3 3 3 1 1 3 6 5 2 3 3 4 4 3 2 2 3 3 3 3 3 2 2 2 2 2 1 1 1 1 1 1 0 0 0 1 1 2 2 1 1 1 2 2 2 2 1 1
3 4 4 3 2 1 1 5 3 1 1 2 1 2 2 4 3 2 2 2 3 2 2 2 1 2 1 1 1 2 2 1 1 1 1 1 0 1 1 1 1 1 1 1 2 3 3 3 1
5 4 3 2 1 3 1 4 5 2 1 0 1 1 2 2 2 2 2 2 2 1 1 1 1 1 1 2 2 2 2 2 2 1 1 1 1 1 1 1 1 2 2 1 2 1 1 4 3
3 1 1 2 2 2 1 3 7 1 2 3 3 2 2 2 2 2 2 2 1 1 1 1 2 2 1 1 1 1 1 1 1 1 1 1 1 1 1 1 1 2 2 2 2 2 1 2 3
1 3 3 3 3 3 5 5 7 3 4 2 2 1 1 1 1 1 1 2 2 2 2 1 1 1 1 0 0 1 1 1 1 1 2 2 1 1 2 2 2 2 2 3 3 3 3 3 2
3 4 3 3 1 7 2 4 8 3 1 1 1 1 0 1 1 2 2 2 2 2 2 2 1 1 1 1 1 1 1 2 3 3 3 2 2 2 3 3 3 3 3 3 3 3 3 4 4
3 6 6 5 5 4 1 6 6 1 1 2 2 2 2 2 2 2 1 1 1 2 2 2 2 2 2 1 2 2 2 2 2 3 3 4 3 3 3 4 3 4 3 3 3 3 4 4 5
3 3 3 4 1 2 5 5 5 1 2 3 3 3 2 2 2 2 2 2 2 1 2 2 2 2 2 3 2 2 2 2 3 3 3 3 3 3 3 3 3 4 4 4 4 4 5 5 5
2 4 3 3 3 5 5 5 5 3 2 1 1 1 1 2 2 2 2 2 2 2 2 2 2 2 3 3 2 2 2 3 3 3 3 3 3 3 3 4 4 4 4 4 4 4 4 5 5
1 1 3 2 3 4 4 6 3 4 3 3 2 1 0 1 0 1 1 2 2 2 2 2 2 3 3 3 3 3 3 3 3 3 3 4 3 3 4 4 4 5 5 4 5 5 5 6 6
2 3 4 4 4 4 3 7 1 2 1 2 1 1 0 1 1 1 1 2 2 2 3 3 3 3 3 3 3 3 3 3 3 3 4 4 4 4 4 4 5 5 5 5 6 6 6 7 7
Wind_Direction
316 340 72 63 63 64 225 240 222 193 209 198 92 96 109 108 126 148 136 98 115 132 132 128 113 114 112 108 103 100 97 95 96 95 95 96 96 95 95 94 93 91 89 87 86 84 83 82 81
342 20 65 68 107 176 246 238 220 223 190 138 79 81 85 81 66 103 113 110 120 121 113 124 110 107 108 107 105 104 100 95 96 97 96 97 95 92 91 92 92 89 88 88 86 85 82 80 80
336 70 92 94 151 190 214 219 205 217 179 109 85 54 89 111 109 124 133 123 107 97 87 104 107 108 105 103 104 106 106 104 101 97 96 97 96 94 90 90 91 90 89 90 89 85 81 79 79
66 58 65 102 209 220 204 196 172 153 31 74 115 88 64 24 129 134 120 113 104 91 83 105 104 103 102 102 102 102 105 106 104 100 98 97 96 95 92 91 91 91 90 90 89 86 82 80 80
66 89 100 199 231 240 230 221 165 157 169 125 119 117 88 352 83 111 114 109 105 90 79 97 102 101 100 97 94 97 96 99 101 100 100 99 97 96 95 93 91 90 90 91 90 88 84 81 84
71 85 130 209 229 243 250 222 170 156 176 97 113 121 133 45 102 111 109 106 104 96 82 82 90 89 91 94 91 89 92 93 93 97 99 98 99 98 96 95 94 94 93 93 93 91 87 84 84
120 125 177 194 207 233 242 204 160 170 177 192 137 125 143 174 130 114 107 103 98 93 85 74 71 75 78 82 85 88 87 88 88 86 92 95 95 97 95 93 92 93 94 93 95 93 89 87 83
136 126 179 198 193 225 241 158 162 158 175 44 109 141 179 190 145 112 102 98 97 90 82 76 69 65 62 69 81 83 84 81 78 76 74 81 85 88 88 86 90 92 93 93 93 93 90 86 84
104 105 201 203 188 207 201 158 330 113 106 58 43 107 155 138 129 115 109 99 99 93 82 77 75 68 62 62 73 75 78 76 73 71 70 71 70 71 73 79 85 88 89 90 91 88 85 83 80
107 175 214 215 188 178 145 141 168 109 90 76 55 57 106 127 135 136 139 139 133 126 108 88 85 81 70 67 63 58 63 66 61 59 58 54 68 70 73 75 76 77 75 76 78 77 75 72 64
149 189 204 253 252 153 125 76 109 137 177 191 169 152 141 136 144 149 150 147 145 139 123 106 101 92 84 79 74 58 57 58 60 57 57 57 63 69 66 69 64 63 63 55 57 59 55 62 67
162 230 203 244 275 93 150 143 95 160 208 179 154 149 148 151 160 164 158 150 143 134 131 118 108 101 91 89 85 77 72 64 58 53 61 68 70 71 76 78 70 62 59 60 56 61 59 65 68
213 233 233 239 78 87 97 153 153 247 131 104 118 134 148 152 155 151 143 138 140 142 142 140 125 116 110 105 99 88 82 77 66 56 52 66 81 91 85 82 79 72 65 71 69 67 69 72 72
193 179 228 247 214 214 142 264 171 241 122 113 127 141 150 155 153 138 140 150 157 153 151 148 139 127 118 108 104 101 87 86 78 67 59 64 75 87 94 89 85 84 82 83 87 81 81 79 77
113 86 319 265 213 198 125 291 244 228 142 132 145 151 152 156 148 158 166 165 164 156 146 148 143 129 124 116 111 110 105 94 89 84 73 68 71 72 90 99 94 91 95 91 86 74 74 77 72
66 95 263 268 196 182 157 248 269 200 149 168 171 163 163 166 165 167 158 151 150 145 143 144 140 131 125 119 116 114 111 103 95 91 85 79 76 76 77 94 96 85 92 99 102 93 88 81 79
47 214 235 269 213 157 170 237 270 182 159 179 180 178 173 162 147 155 144 141 141 147 146 145 131 138 137 124 113 113 110 102 98 92 85 84 80 80 78 93 82 96 95 95 109 92 106 107 88
208 215 234 233 237 132 198 248 280 234 176 194 192 182 167 158 180 140 122 122 120 117 120 131 130 135 135 121 105 94 84 80 80 106 96 97 98 89 79 96 80 89 104 98 106 110 85 111 116
180 194 239 253 225 171 226 253 268 244 192 206 189 174 168 173 142 104 103 103 101 95 101 111 116 127 129 134 141 140 162 157 95 55 77 105 114 111 100 101 104 87 121 137 134 129 112 81 86
200 219 254 287 317 190 244 265 265 213 194 197 187 182 173 132 89 91 92 98 104 111 108 111 118 129 128 144 163 156 155 178 188 100 60 78 116 123 118 112 127 117 104 128 134 128 128 120 110
232 214 228 255 334 0 339 296 264 246 108 85 110 151 149 147 146 133 113 109 102 107 126 123 105 119 121 98 94 85 62 42 41 355 299 299 141 130 124 127 124 143 140 174 172 160 147 161 192
244 235 217 214 160 271 174 274 276 251 316 308 211 161 164 154 148 140 128 126 131 144 131 117 116 97 88 109 123 145 171 196 221 215 235 264 228 177 160 160 157 167 168 183 202 182 168 163 178
222 260 202 186 174 286 273 229 277 284 256 254 234 210 197 177 166 164 160 167 146 101 107 113 103 76 67 102 146 171 225 225 217 207 215 233 241 229 218 196 188 195 191 193 193 200 207 180 185
135 54 46 49 78 262 227 197 270 234 228 235 236 217 209 163 135 112 71 76 58 55 60 61 74 44 42 58 173 196 234 239 213 224 223 235 249 243 237 232 217 216 212 208 208 204 210 212 205
84 94 35 357 324 250 221 203 251 247 232 209 215 179 126 115 111 87 64 58 52 46 38 31 41 9 354 336 278 257 253 237 223 220 222 226 238 245 236 235 231 230 229 224 217 216 218 216 219
189 153 166 201 228 270 262 226 252 252 53 51 70 84 70 68 69 73 75 74 45 31 27 23 8 352 343 316 300 282 265 253 257 238 232 228 232 232 229 228 229 234 235 236 225 227 223 217 218
153 193 180 151 199 262 257 274 293 155 51 47 49 55 54 49 55 50 40 38 31 14 358 353 354 347 338 328 316 304 290 279 276 268 243 239 243 245 234 231 235 238 236 234 228 233 232 222 220
152 147 113 147 189 252 272 255 241 233 251 315 2 8 2 25 31 28 24 10 2 347 344 354 352 335 323 321 315 309 299 290 284 279 262 254 252 252 243 240 240 241 241 236 232 238 241 229 227
106 137 148 159 187 194 253 264 234 206 209 210 227 247 294 44 6 346 353 354 354 0 4 357 349 343 337 328 318 319 315 305 296 286 279 268 262 254 250 247 246 246 245 239 234 236 237 233 232
157 179 152 178 230 207 221 267 285 189 195 188 235 294 295 347 349 349 355 2 5 4 355 345 339 336 328 324 318 309 312 314 300 289 284 281 267 257 253 251 249 250 250 245 239 239 238 234 232